Location: Seasalter
(51.3333°N, 1.0167°E)
Time: 13:49:55
(UTC+00:00)

ATLAS 5 CENTAUR R/B - Pass Details

Date: 02 May 2024
Orbit: 421 x 1169 km, 63.3° (Epoch: 22 May)

Event Time Altitude Azimuth Distance (km) Brightness Sun altitude
Rises 21:01:50 0° 313° (NW) 2,712 6.9 -13.3°
Reaches altitude 10° 21:04:12 10° 328° (NNW) 1,922 5.5 -13.5°
Maximum altitude 21:07:49 25° 24° (NNE) 1,345 3.6 -13.9°
Drops below altitude 10° 21:12:05 10° 79° (E) 2,302 4.2 -14.3°
Enters shadow 21:13:35 - 87° (E) 2,812 4.6 -14.5°
